[[{"header":{"parameterUnit":"m.s-1","parameterCategory":1,"la1":30.2991,"la2":30.254,"lo1":-89.0895,"lo2":-89.0444,"dy":0.0017,"dx":0.0017,"nx":28,"ny":28,"refTime":"2024-06-03T21:00:00:Z","depth":0,"parameterNumber":2,"parameterNumberName":"U-component_of_WINDS"},"data":[0,0,0,0,0,0,0,0,0,0,0,0,0,0,0,0,0,0,0,0,0,0,0,0,0,0,0,0,0,0,0,0,0,0,0,0,0,0,0,0,0,0,0,0,0,0,0,0,0,0,0,0,0,0,0,0,0,0,-0.558,-0.5579,0,-0.5476,-0.5474,-0.5473,-0.5422,-0.5423,-0.5423,-0.5423,-0.5318,-0.5315,-0.5312,0,0,0,0,0,0,0,0,0,0,0,0,0,-0.574,-0.5737,-0.558,-0.5579,-0.5578,-0.5476,-0.5474,-0.5473,-0.5422,-0.5423,-0.5423,-0.5423,-0.5319,-0.5315,-0.5312,0,0,0,0,0,0,0,0,0,0,0,0,0,-0.5656,-0.5736,-0.5581,-0.554,-0.5536,-0.5476,-0.5474,-0.5472,-0.5422,-0.5423,-0.5423,-0.5423,-0.532,-0.5316,-0.5312,-0.5285,0,0,-0.5299,-0.5297,0,0,0,0,0,0,0,0,-0.5661,-0.5651,-0.5548,-0.5543,-0.5538,-0.5462,-0.5492,-0.541,-0.5422,-0.5466,-0.5423,-0.5423,-0.5366,-0.5358,-0.5338,-0.528,-0.5276,-0.5298,-0.5296,-0.5294,-0.5293,0,0,0,0,0,0,0,-0.5667,-0.5655,-0.5539,-0.5546,-0.554,-0.5528,-0.5517,-0.5476,-0.5417,-0.5462,-0.5458,-0.5446,-0.5363,-0.5343,-0.5336,-0.5274,-0.5299,-0.5295,-0.5292,-0.5291,-0.5189,-0.5189,0,0,0,0,0,0,-0.5679,-0.566,-0.5542,-0.5536,-0.5601,-0.5525,-0.5512,-0.5486,-0.5417,-0.5407,-0.5446,-0.5444,-0.535,-0.534,-0.5332,-0.5296,-0.5294,-0.529,-0.5288,-0.5189,-0.5189,-0.5189,0,0,0,0,0,0,-0.5683,-0.5669,-0.5547,-0.5597,-0.558,-0.5523,-0.5494,-0.5484,-0.5463,-0.5405,-0.5395,-0.5435,-0.5349,-0.5338,-0.5297,-0.5291,-0.5288,-0.5284,-0.5189,-0.5189,-0.5189,-0.5224,0,0,0,0,0,0,-0.5687,-0.5671,-0.5659,-0.5597,-0.5578,-0.5513,-0.5494,-0.5482,-0.5456,-0.5452,-0.5393,-0.5383,-0.5348,-0.5303,-0.5293,-0.5285,-0.5281,-0.519,-0.5189,-0.5189,-0.5223,-0.5225,-0.5226,0,0,0,0,0,-0.5693,-0.5674,-0.5659,-0.5645,-0.5562,-0.5512,-0.5502,-0.5462,-0.5456,-0.5444,-0.5407,-0.5385,-0.5294,-0.53,-0.5287,-0.5279,-0.519,-0.5189,-0.5189,-0.5222,-0.5224,-0.5226,0,0,0,0,0,0,-0.5738,-0.5665,-0.5647,-0.5607,-0.5566,-0.5504,-0.5488,-0.5466,-0.5426,-0.5425,-0.5378,-0.5365,-0.5328,-0.5299,-0.5307,-0.5249,-0.524,-0.5237,-0.5269,-0.5271,-0.5273,-0.528,-0.5278,0,0,0,0,0,-0.5743,-0.5708,-0.5646,-0.5617,-0.5597,-0.5546,-0.5523,-0.5496,-0.5452,-0.5435,-0.5395,-0.5354,-0.5316,-0.5292,-0.5254,-0.5219,-0.5205,-0.5207,-0.5209,-0.521,-0.5208,-0.5188,-0.5188,-0.5188,-0.5188,-0.5188,0,0,-0.5753,-0.5709,-0.569,-0.5624,-0.559,-0.5555,-0.5532,-0.5496,-0.547,-0.543,-0.5388,-0.5358,-0.5309,-0.5271,-0.5252,-0.5246,-0.5205,-0.521,-0.5212,-0.5208,-0.5187,-0.5187,-0.5187,-0.5187,-0.5187,-0.5187,0,0,-0.5754,-0.5717,-0.5688,-0.5653,-0.56,-0.5567,-0.556,-0.5501,-0.5479,-0.5436,-0.5405,-0.5374,-0.531,-0.5277,-0.5251,-0.524,-0.5218,-0.5229,-0.5238,-0.5218,-0.5218,-0.5218,-0.5214,-0.5213,-0.5227,-0.5227,-0.5227,0,-0.5773,-0.5719,-0.5676,-0.5642,-0.5614,-0.5575,-0.5546,-0.5515,-0.5453,-0.5435,-0.5429,-0.5347,-0.5312,-0.5265,-0.5263,-0.5243,-0.5235,-0.5235,-0.5222,-0.5221,-0.522,-0.5215,-0.5214,-0.5229,-0.5229,-0.5229,-0.5228,0,-0.5745,-0.5708,-0.5692,-0.5631,-0.5602,-0.5571,-0.5524,-0.55,-0.5475,-0.5443,-0.5401,-0.5357,-0.5309,-0.5296,-0.5272,-0.5246,-0.5244,-0.523,-0.522,-0.5222,-0.5217,-0.5215,-0.5231,-0.5231,-0.523,-0.523,0,0,-0.5771,-0.5687,-0.5682,-0.5654,-0.5593,-0.5564,-0.5531,-0.5484,-0.5464,-0.5423,-0.5394,-0.5341,-0.5328,-0.5299,-0.5272,-0.5255,-0.5248,-0.5243,-0.5241,-0.5245,-0.5217,-0.5227,-0.5225,-0.5234,-0.5233,-0.5233,-0.5221,0,-0.5763,-0.5701,-0.5661,-0.5615,-0.5581,-0.5543,-0.5515,-0.5475,-0.5444,-0.5411,-0.5377,-0.534,-0.5325,-0.5308,-0.5289,-0.5253,-0.5242,-0.5253,-0.5207,-0.5206,-0.522,-0.5223,-0.5233,-0.5224,-0.5218,-0.5218,-0.5218,0,-0.5745,-0.5703,-0.5654,-0.5596,-0.558,-0.5555,-0.5508,-0.5477,-0.5432,-0.541,-0.5378,-0.535,-0.5315,-0.5308,-0.5259,-0.5268,-0.5247,-0.5226,-0.5225,-0.5219,-0.5212,-0.5216,-0.522,-0.5218,-0.5214,-0.5214,-0.5215,0,-0.5768,-0.57,-0.5661,-0.5639,-0.5571,-0.5554,-0.5526,-0.548,-0.5454,-0.5414,-0.5396,-0.5353,-0.5329,-0.5297,-0.5258,-0.5257,-0.5213,-0.5203,-0.5195,-0.5196,-0.5187,-0.5188,-0.5187,-0.5175,-0.5175,-0.5175,-0.5175,0,-0.5762,-0.5733,-0.567,-0.5647,-0.5613,-0.5569,-0.5538,-0.5506,-0.5466,-0.5436,-0.5402,-0.5375,-0.5325,-0.5293,-0.5262,-0.5226,-0.5216,-0.5198,-0.5191,-0.5201,-0.5203,-0.5186,-0.5186,-0.5174,-0.5174,-0.5174,-0.5175,0,-0.5782,-0.5739,-0.5694,-0.5633,-0.5618,-0.5596,-0.5544,-0.552,-0.5488,-0.545,-0.5439,-0.5388,-0.5348,-0.5306,-0.5252,-0.5231,-0.5196,-0.5186,-0.5211,-0.5207,-0.5201,-0.5202,-0.5188,-0.5184,-0.5176,-0.5176,-0.5176,0,-0.5781,-0.5758,-0.5694,-0.5671,-0.5643,-0.5607,-0.5579,-0.5536,-0.5509,-0.5455,-0.5438,-0.5395,-0.5358,-0.5295,-0.5254,-0.5213,-0.52,-0.5199,-0.5194,-0.5205,-0.52,-0.5201,-0.5199,-0.52,-0.5201,-0.5201,-0.5201,0,-0.5784,-0.5764,-0.5725,-0.568,-0.5648,-0.561,-0.5572,-0.5555,-0.5504,-0.5476,-0.5433,-0.5405,-0.5349,-0.5307,-0.526,-0.5232,-0.5208,-0.5203,-0.5199,-0.5209,-0.5224,-0.5215,-0.5215,-0.5203,-0.5203,-0.5203,-0.5203,-0.5203,-0.5793,-0.577,-0.5722,-0.5681,-0.5647,-0.5611,-0.5585,-0.5549,-0.5512,-0.5463,-0.5439,-0.5397,-0.5353,-0.5287,-0.5259,-0.5226,-0.522,-0.5214,-0.5212,-0.5211,-0.5214,-0.523,-0.5218,-0.5218,-0.5218,-0.5218,-0.5218,0,-0.5794,-0.5761,-0.5723,-0.5669,-0.5637,-0.5616,-0.5572,-0.5547,-0.551,-0.547,-0.5434,-0.5385,-0.5344,-0.53,-0.5256,-0.5238,-0.5227,-0.5229,-0.5229,-0.5223,-0.5222,-0.523,-0.5239,-0.5239,-0.5239,-0.5239,-0.5239,-0.5239,-0.579,-0.5751,-0.5725,-0.5668,-0.5636,-0.5593,-0.5569,-0.5537,-0.5504,-0.5451,-0.5417,-0.5388,-0.5346,-0.5299,-0.5261,-0.5249,-0.5234,-0.5239,-0.5225,-0.5225,-0.5223,-0.5221,-0.5228,-0.5237,-0.5237,-0.5228,-0.5228,-0.5227]},{"header":{"parameterUnit":"m.s-1","parameterCategory":1,"la1":30.2991,"la2":30.254,"lo1":-89.0895,"lo2":-89.0444,"dy":0.0017,"dx":0.0017,"nx":28,"ny":28,"refTime":"2024-06-03T21:00:00:Z","depth":0,"parameterNumber":3,"parameterNumberName":"V-component_of_WINDS"},"data":[0,0,0,0,0,0,0,0,0,0,0,0,0,0,0,0,0,0,0,0,0,0,0,0,0,0,0,0,0,0,0,0,0,0,0,0,0,0,0,0,0,0,0,0,0,0,0,0,0,0,0,0,0,0,0,0,0,0,4.8682,4.8681,0,4.8588,4.8587,4.8586,4.8535,4.8535,4.8535,4.8534,4.8429,4.8427,4.8424,0,0,0,0,0,0,0,0,0,0,0,0,0,4.8812,4.881,4.8682,4.8681,4.868,4.8588,4.8587,4.8585,4.8535,4.8535,4.8535,4.8534,4.843,4.8427,4.8424,0,0,0,0,0,0,0,0,0,0,0,0,0,4.874,4.8809,4.8683,4.8644,4.864,4.8588,4.8587,4.8585,4.8535,4.8535,4.8534,4.8534,4.8431,4.8427,4.8423,4.8401,0,0,4.8411,4.8409,0,0,0,0,0,0,0,0,4.8744,4.8735,4.8651,4.8647,4.8642,4.8573,4.8594,4.8523,4.8535,4.8574,4.8534,4.8534,4.8477,4.8469,4.8451,4.8396,4.8391,4.8411,4.8408,4.8406,4.8405,0,0,0,0,0,0,0,4.8749,4.8739,4.8645,4.865,4.8644,4.8629,4.8619,4.858,4.8527,4.8571,4.8567,4.8557,4.8474,4.8455,4.8448,4.839,4.8411,4.8407,4.8404,4.8403,4.8311,4.8311,0,0,0,0,0,0,4.8762,4.8744,4.8648,4.8642,4.8694,4.8627,4.8615,4.8595,4.8527,4.8517,4.8557,4.8555,4.8462,4.8453,4.8444,4.8414,4.8406,4.8402,4.84,4.8311,4.8311,4.8311,0,0,0,0,0,0,4.8765,4.8754,4.8652,4.8692,4.8678,4.8625,4.8602,4.8593,4.8575,4.8517,4.8507,4.8548,4.8462,4.845,4.8413,4.841,4.8401,4.8397,4.8311,4.8311,4.8311,4.8354,0,0,0,0,0,0,4.8768,4.8755,4.8748,4.8692,4.8676,4.8624,4.8602,4.8592,4.8569,4.8565,4.8506,4.8496,4.8461,4.8419,4.8409,4.8404,4.8394,4.8311,4.8311,4.8311,4.8352,4.8355,4.8357,0,0,0,0,0,4.8773,4.8761,4.8747,4.8736,4.8666,4.8624,4.8614,4.8576,4.8569,4.856,4.8523,4.8498,4.8412,4.8416,4.8404,4.8398,4.8311,4.8311,4.8311,4.8351,4.8354,4.8357,0,0,0,0,0,0,4.8814,4.8753,4.8737,4.8707,4.8672,4.8615,4.8603,4.8581,4.8545,4.8542,4.8494,4.8481,4.8448,4.8419,4.8424,4.8372,4.8359,4.8357,4.8393,4.8396,4.8399,4.8406,4.839,0,0,0,0,0,4.8821,4.8794,4.8741,4.8719,4.8703,4.8656,4.8636,4.8611,4.857,4.8554,4.8515,4.8474,4.8438,4.8415,4.8379,4.8348,4.8334,4.8337,4.834,4.8343,4.8341,4.8322,4.8324,4.8312,4.8312,4.8312,0,0,4.8832,4.8795,4.8781,4.8727,4.8696,4.8668,4.8644,4.8614,4.8592,4.8549,4.8512,4.8482,4.8433,4.8399,4.8382,4.8374,4.8341,4.8343,4.8345,4.8342,4.8323,4.8324,4.8325,4.8312,4.8312,4.8312,0,0,4.8838,4.8808,4.8787,4.8758,4.8713,4.8682,4.8678,4.8625,4.8604,4.8567,4.8534,4.8506,4.8445,4.8412,4.8388,4.8383,4.8358,4.8372,4.8386,4.8368,4.8369,4.837,4.8368,4.8368,4.8371,4.8371,4.8371,0,4.8857,4.8816,4.8779,4.8752,4.8729,4.8692,4.867,4.8642,4.8586,4.857,4.8562,4.8486,4.845,4.8408,4.8408,4.8389,4.8381,4.8379,4.8373,4.8373,4.8373,4.8371,4.837,4.8373,4.8373,4.8372,4.8372,0,4.8841,4.8813,4.8801,4.8752,4.8728,4.8703,4.8661,4.864,4.8616,4.8586,4.8548,4.8505,4.846,4.8448,4.8423,4.8402,4.8399,4.8382,4.8368,4.8377,4.8374,4.8373,4.8376,4.8375,4.8374,4.8374,0,0,4.887,4.8803,4.8799,4.8777,4.8725,4.8701,4.8674,4.8633,4.8616,4.8578,4.8554,4.8504,4.8489,4.8462,4.8433,4.8418,4.8417,4.8403,4.8401,4.8407,4.8392,4.8405,4.8405,4.8401,4.8401,4.84,4.8396,0,4.8869,4.8823,4.879,4.8755,4.8729,4.8693,4.867,4.8634,4.8605,4.8576,4.8543,4.8509,4.8491,4.8475,4.8458,4.8421,4.8413,4.8421,4.8376,4.8375,4.839,4.8403,4.8416,4.8414,4.8394,4.8394,4.8394,0,4.8862,4.883,4.8794,4.8746,4.8734,4.8714,4.8674,4.8647,4.8605,4.8585,4.8556,4.8527,4.8495,4.8484,4.8439,4.8445,4.8424,4.8403,4.8402,4.8396,4.8385,4.8398,4.8412,4.8412,4.8392,4.8392,4.8392,0,4.8887,4.8834,4.8806,4.8788,4.8732,4.8719,4.8694,4.8653,4.863,4.8594,4.8579,4.8538,4.8516,4.8484,4.8445,4.844,4.8404,4.8389,4.8385,4.8386,4.8379,4.838,4.8391,4.8365,4.8365,4.8365,4.8365,0,4.889,4.8869,4.8817,4.88,4.8776,4.8736,4.8712,4.8684,4.8648,4.8623,4.8589,4.8566,4.8515,4.8485,4.8453,4.8421,4.841,4.8392,4.8384,4.8395,4.8398,4.8381,4.838,4.8365,4.8365,4.8365,4.8365,0,4.8913,4.8878,4.8846,4.8796,4.8783,4.8767,4.8723,4.8704,4.8674,4.8643,4.8633,4.8585,4.8548,4.8506,4.8453,4.8432,4.8402,4.839,4.8418,4.8413,4.8411,4.8412,4.8412,4.841,4.8386,4.8387,4.8387,0,4.8918,4.8902,4.8851,4.8834,4.8812,4.8783,4.8761,4.8721,4.8699,4.8652,4.8638,4.86,4.8567,4.8509,4.8467,4.8427,4.8414,4.8417,4.8407,4.842,4.8414,4.8416,4.8414,4.8419,4.842,4.842,4.842,0,4.8929,4.8913,4.8884,4.885,4.8825,4.8795,4.8763,4.875,4.8703,4.868,4.8644,4.8619,4.8568,4.8529,4.8484,4.8456,4.843,4.8424,4.8421,4.8432,4.8449,4.8441,4.8425,4.8424,4.8424,4.8423,4.8423,4.8423,4.8943,4.8928,4.8891,4.886,4.8833,4.8804,4.8785,4.8753,4.8723,4.8681,4.8658,4.8623,4.8581,4.8519,4.8492,4.8461,4.8452,4.8448,4.8447,4.8446,4.845,4.8455,4.8453,4.8452,4.8452,4.8452,4.8452,0,4.8953,4.8928,4.89,4.8859,4.8835,4.8816,4.878,4.876,4.873,4.8695,4.8664,4.8622,4.8585,4.8542,4.8501,4.8485,4.8472,4.8476,4.8477,4.847,4.846,4.8467,4.8487,4.8487,4.8487,4.8487,4.8487,4.8487,4.8955,4.8929,4.8909,4.8867,4.8841,4.8809,4.879,4.8763,4.8735,4.8692,4.8662,4.8635,4.8596,4.8553,4.8517,4.8505,4.8492,4.8499,4.8483,4.8474,4.8471,4.8468,4.8475,4.8496,4.8496,4.8496,4.8497,4.8497]}]]